Location: Fort Wayne
(41.1310°N, 85.1290°W)
Time: 00:17:39
(UTC-04:00)

Iridium 37 - Visible Passes

Search period start: 25 July 2016 00:00
Search period end: 04 August 2016 00:00
Orbit: 776 x 779 km, 86.4° (Epoch: 24 July)

Date Brightness Start Highest point End Pass type
(mag) Time Alt. Az. Time Alt. Az. Time Alt. Az.
25 Jul 7.5 00:46:05 10° NW 00:49:39 19° W 00:51:24 16° WSW visible
25 Jul 6.6 22:31:15 10° NNE 22:35:40 27° E 22:37:35 22° ESE visible
26 Jul 6.8 00:11:44 10° NNW 00:16:23 34° W 00:18:04 27° WSW visible
26 Jul 7.3 21:58:51 10° NE 22:01:49 15° ENE 22:04:17 11° ESE visible
26 Jul 5.8 23:37:51 10° N 23:43:00 63° W 23:44:45 40° SSW visible
27 Jul 5.5 23:04:17 10° N 23:09:30 72° E 23:11:27 39° SSE visible
28 Jul 8.0 00:47:13 10° NW 00:49:31 13° WNW 00:51:49 10° WSW visible
28 Jul 6.1 22:31:00 10° NNE 22:35:53 38° E 22:38:09 26° SE visible
29 Jul 7.4 00:12:13 10° NNW 00:16:20 24° W 00:18:37 18° WSW visible
29 Jul 6.9 21:58:08 10° NNE 22:02:06 22° ENE 22:04:52 15° ESE visible
29 Jul 6.5 23:38:05 10° NNW 23:43:01 43° W 23:45:21 27° SW visible
30 Jul 7.5 21:26:21 10° NE 21:28:13 12° ENE 21:30:03 10° E visible
30 Jul 5.5 23:04:21 10° N 23:09:35 80° W 23:12:05 32° S visible
31 Jul 5.7 22:30:53 10° N 22:36:02 56° E 22:38:50 26° SSE visible
01 Aug 7.9 00:13:00 10° NW 00:16:13 17° WNW 00:19:19 10° WSW visible
01 Aug 6.4 21:57:44 10° NNE 22:02:21 30° E 22:05:36 17° SE visible
01 Aug 7.1 23:38:29 10° NNW 23:42:59 30° W 23:46:05 17° SW visible
02 Aug 7.1 21:25:09 10° NE 21:28:32 17° ENE 21:31:54 10° ESE visible
02 Aug 6.1 23:04:31 10° NNW 23:09:37 55° W 23:12:52 22° SSW visible
03 Aug 5.4 22:30:53 10° N 22:36:09 81° E 22:39:40 21° S visible
